Retour au catalogue

NOVA 2

ActifNavigationPO
NORAD 19223·PAYLOAD·🇺🇸 United States

Lancé Jun 16, 1988 depuis Vandenberg Space Force Base

Loading…

Prochains Passages (prochaines 24 heures)

TLE

FraisSource: Space-Track

Époque: Sep 14, 2026, 12:10 UTC

1 19223U 88052A   26257.50754546  .00000016  00000-0  17915-4 0  9992
2 19223  89.9784  77.8087 0029702 336.8410  38.4254 13.22964241845946

Suivez NOVA 2 en temps réel avec AllMySat

Download on the App Store